EW5612 Weather Reports


Display with metric or nautical units.
time (UTC)temp
F
wind
direction
speed
MPH
gust
MPH
rain 1hr
in
rain 24hr
in
rain mn
in
humidity
%
barometer
mb
20260906213703 89 77 0.0 0.0 0.00 0.16 0.16 63 1010.3
20260906212704 86 77 0.0 0.0 0.00 0.16 0.16 75 1010.3
20260906212204 85 77 0.0 0.0 0.00 0.16 0.16 80 1010.4
20260906211704 83 77 0.0 0.0 0.00 0.16 0.16 83 1010.5
20260906211203 83 77 0.0 0.0 0.00 0.16 0.16 88 1010.7
20260906210704 82 77 0.0 0.0 0.00 0.16 0.16 90 1010.6
20260906210204 82 77 0.0 0.0 0.00 0.16 0.16 91 1010.7
20260906205704 82 77 0.0 0.0 0.01 0.16 0.16 92 1010.8
20260906205204 82 77 0.0 0.0 0.01 0.16 0.16 92 1010.8
20260906204703 82 77 0.0 0.0 0.03 0.16 0.16 92 1010.9
20260906204203 81 77 0.0 0.0 0.05 0.16 0.16 91 1011.0
20260906203703 81 77 0.0 0.0 0.09 0.16 0.16 91 1011.1
20260906202704 81 77 0.0 0.0 0.16 0.16 0.16 91 1011.1
20260906202203 80 77 0.0 0.0 0.16 0.16 0.16 91 1011.1
20260906201704 80 77 0.0 0.0 0.16 0.16 0.16 90 1011.2
20260906201204 80 77 0.0 0.0 0.16 0.16 0.16 89 1011.2
20260906200704 80 77 0.0 0.0 0.16 0.16 0.16 88 1011.2
20260906200204 80 77 0.0 0.0 0.16 0.16 0.16 87 1011.4
20260906195703 80 77 0.0 0.0 0.15 0.15 0.15 86 1011.5
20260906195204 81 77 0.0 0.0 0.15 0.15 0.15 83 1011.6
20260906194704 82 77 0.0 0.0 0.13 0.13 0.13 79 1011.8
20260906194203 84 26 0.0 0.0 0.11 0.11 0.11 77 1011.8
20260906193703 86 73 0.0 0.0 0.07 0.07 0.07 74 1012.0
20260906192704 89 112 1.0 3.0 0.00 0.00 0.00 63 1011.8
20260906192203 90 60 0.0 0.0 0.00 0.00 0.00 62 1011.6
20260906191203 91 85 1.0 6.0 0.00 0.00 0.00 60 1011.5
20260906190704 92 268 0.0 0.0 0.00 0.00 0.00 64 1011.4
20260906190204 92 268 0.0 0.0 0.00 0.00 0.00 62 1011.5
20260906185703 92 268 0.0 0.0 0.00 0.00 0.00 58 1011.5
20260906185203 92 254 0.0 0.0 0.00 0.00 0.00 56 1011.6
20260906184704 92 233 0.0 0.0 0.00 0.00 0.00 55 1011.6
20260906184203 92 339 0.0 3.0 0.00 0.00 0.00 55 1011.6
20260906183704 93 348 0.0 0.0 0.00 0.00 0.00 55 1011.6
20260906183203 93 4 0.0 0.0 0.00 0.00 0.00 54 1011.6
20260906182703 93 297 0.0 3.0 0.00 0.00 0.00 55 1011.6
20260906182204 94 17 0.0 1.0 0.00 0.00 0.00 54 1011.7
20260906181704 94 349 1.0 3.0 0.00 0.00 0.00 55 1011.7
20260906180703 93 0 0.0 0.0 0.00 0.00 0.00 56 1011.9
20260906180203 92 276 0.0 0.0 0.00 0.00 0.00 57 1012.0
20260906175704 92 29 1.0 3.0 0.00 0.00 0.00 58 1012.1
20260906175204 92 5 2.0 7.0 0.00 0.00 0.00 60 1012.2
20260906173704 92 313 0.0 3.0 0.00 0.00 0.00 60 1012.3
20260906173204 91 313 0.0 0.0 0.00 0.00 0.00 60 1012.5
20260906172704 90 8 1.0 3.0 0.00 0.00 0.00 61 1012.6
20260906172203 89 285 0.0 0.0 0.00 0.00 0.00 61 1012.7
20260906171703 88 187 0.0 0.0 0.00 0.00 0.00 62 1012.9
20260906171203 88 187 0.0 0.0 0.00 0.00 0.00 61 1013.0
20260906170704 88 187 0.0 0.0 0.00 0.00 0.00 63 1013.2
20260906170204 89 187 0.0 0.0 0.00 0.00 0.00 64 1013.3
20260906165703 89 187 0.0 0.0 0.00 0.00 0.00 62 1013.2
20260906165204 89 187 0.0 0.0 0.00 0.00 0.00 61 1013.2
20260906164704 89 187 0.0 0.0 0.00 0.00 0.00 61 1013.2
20260906164203 89 187 0.0 0.0 0.00 0.00 0.00 60 1013.2
20260906163704 89 187 0.0 0.0 0.00 0.00 0.00 60 1013.3
20260906163203 89 187 0.0 0.0 0.00 0.00 0.00 61 1013.3
20260906162703 89 187 0.0 0.0 0.00 0.00 0.00 63 1013.3
20260906162204 89 187 0.0 5.0 0.00 0.00 0.00 63 1013.3
20260906161204 89 79 0.0 0.0 0.00 0.00 0.00 66 1013.2
20260906160704 89 197 0.0 0.0 0.00 0.00 0.00 67 1013.2
20260906160203 89 197 0.0 0.0 0.00 0.00 0.00 66 1013.2
20260906155203 89 201 0.0 0.0 0.00 0.00 0.00 67 1013.2
20260906154703 89 253 0.0 0.0 0.00 0.00 0.00 69 1013.2
20260906154204 88 274 0.0 0.0 0.00 0.00 0.00 69 1013.2
20260906153704 88 297 0.0 0.0 0.00 0.00 0.00 72 1013.1
20260906153204 87 137 0.0 0.0 0.00 0.00 0.00 72 1013.1
20260906152703 87 139 0.0 0.0 0.00 0.00 0.00 74 1013.2
20260906152204 86 139 0.0 0.0 0.00 0.00 0.00 75 1013.2
20260906151705 86 139 0.0 0.0 0.00 0.00 0.00 76 1013.2
20260906151203 86 160 0.0 0.0 0.00 0.00 0.00 76 1013.1
20260906150703 85 160 0.0 0.0 0.00 0.00 0.00 78 1013.1
20260906150203 85 192 0.0 0.0 0.00 0.00 0.00 79 1013.2
20260906145703 84 192 0.0 0.0 0.00 0.00 0.00 80 1013.1
20260906145204 84 192 0.0 3.0 0.00 0.00 0.00 79 1013.0
20260906144703 84 192 0.0 0.0 0.00 0.00 0.00 80 1013.0
20260906144204 83 199 0.0 0.0 0.00 0.00 0.00 82 1013.0
20260906143703 83 202 0.0 0.0 0.00 0.00 0.00 84 1013.0
20260906143203 83 192 0.0 0.0 0.00 0.00 0.00 83 1013.0
20260906142703 83 190 0.0 5.0 0.00 0.00 0.00 85 1013.1
20260906142204 82 193 0.0 0.0 0.00 0.00 0.00 85 1013.1
20260906141703 82 193 0.0 0.0 0.00 0.00 0.00 86 1013.1
20260906141203 82 195 0.0 0.0 0.00 0.00 0.00 87 1013.1
20260906140703 81 137 0.0 0.0 0.00 0.00 0.00 88 1013.0
20260906140204 81 184 0.0 0.0 0.00 0.00 0.00 89 1012.9
20260906135704 80 184 0.0 2.0 0.00 0.00 0.00 90 1012.9
20260906135204 80 182 0.0 0.0 0.00 0.00 0.00 91 1012.8
20260906134203 80 182 0.0 0.0 0.00 0.00 0.00 91 1012.7
20260906133704 79 182 0.0 0.0 0.00 0.00 0.00 91 1012.6
20260906133203 79 182 0.0 0.0 0.00 0.00 0.00 91 1012.6
20260906132703 79 182 0.0 0.0 0.00 0.00 0.00 91 1012.6
20260906132204 79 182 0.0 0.0 0.00 0.00 0.00 92 1012.7
20260906131203 78 182 0.0 0.0 0.00 0.00 0.00 92 1012.6
20260906130703 78 182 0.0 0.0 0.00 0.00 0.00 92 1012.5
20260906125704 78 182 0.0 0.0 0.00 0.00 0.00 92 1012.4
20260906125204 78 182 0.0 0.0 0.00 0.00 0.00 92 1012.2
20260906124703 78 182 0.0 0.0 0.00 0.00 0.00 92 1012.2
20260906124204 78 182 0.0 0.0 0.00 0.00 0.00 92 1012.0
20260906123703 78 182 0.0 0.0 0.00 0.00 0.00 92 1012.0
20260906122204 78 182 0.0 0.0 0.00 0.00 0.00 91 1011.8
20260906121704 78 182 0.0 0.0 0.00 0.00 0.00 91 1011.7
20260906121203 78 182 0.0 0.0 0.00 0.00 0.00 91 1011.7
20260906120703 78 182 0.0 0.0 0.00 0.00 0.00 91 1011.6
20260906120204 78 182 0.0 0.0 0.00 0.00 0.00 91 1011.5
20260906115203 78 182 0.0 0.0 0.00 0.00 0.00 91 1011.4
20260906114703 78 182 0.0 0.0 0.00 0.00 0.00 90 1011.2
20260906114204 78 182 0.0 0.0 0.00 0.00 0.00 90 1011.1
20260906113704 78 182 0.0 0.0 0.00 0.00 0.00 90 1011.0
20260906112703 78 182 0.0 0.0 0.00 0.00 0.00 90 1010.9
20260906112203 78 182 0.0 0.0 0.00 0.00 0.00 90 1010.7
20260906111704 78 182 0.0 0.0 0.00 0.00 0.00 90 1010.7
20260906111203 78 182 0.0 0.0 0.00 0.00 0.00 90 1010.7
20260906110703 78 182 0.0 0.0 0.00 0.00 0.00 89 1010.7
20260906110203 78 182 0.0 0.0 0.00 0.00 0.00 89 1010.6
20260906105704 78 182 0.0 0.0 0.00 0.00 0.00 89 1010.6
20260906105203 78 182 0.0 0.0 0.00 0.00 0.00 89 1010.5
20260906104703 78 182 0.0 0.0 0.00 0.00 0.00 89 1010.6
20260906103703 79 182 0.0 0.0 0.00 0.00 0.00 88 1010.6
20260906103204 79 182 0.0 0.0 0.00 0.00 0.00 88 1010.6
20260906101703 79 182 0.0 0.0 0.00 0.00 0.00 87 1010.7
20260906101204 79 182 0.0 0.0 0.00 0.00 0.00 87 1010.6
20260906100704 79 182 0.0 0.0 0.00 0.00 0.00 87 1010.6
20260906095703 80 182 0.0 0.0 0.00 0.00 0.00 86 1010.6
20260906095203 80 182 0.0 0.0 0.00 0.00 0.00 86 1010.6
20260906094703 80 182 0.0 0.0 0.00 0.00 0.00 86 1010.6
20260906094204 80 182 0.0 0.0 0.00 0.00 0.00 86 1010.6
20260906093704 80 182 0.0 0.0 0.00 0.00 0.00 86 1010.6
20260906093203 80 182 0.0 0.0 0.00 0.00 0.00 86 1010.6
20260906092704 80 182 0.0 0.0 0.00 0.00 0.00 85 1010.6
20260906092203 80 182 0.0 0.0 0.00 0.00 0.00 85 1010.5
20260906090704 80 182 0.0 0.0 0.00 0.00 0.00 85 1010.6
20260906090203 80 182 0.0 0.0 0.00 0.00 0.00 85 1010.6
20260906085703 81 182 0.0 0.0 0.00 0.00 0.00 85 1010.6
20260906085203 81 182 0.0 0.0 0.00 0.00 0.00 84 1010.5
20260906084704 81 182 0.0 0.0 0.00 0.00 0.00 84 1010.5
20260906084204 81 182 0.0 0.0 0.00 0.00 0.00 84 1010.5
20260906083704 81 182 0.0 0.0 0.00 0.00 0.00 84 1010.5
20260906083204 81 182 0.0 0.0 0.00 0.00 0.00 84 1010.4
20260906081704 81 182 0.0 0.0 0.00 0.00 0.00 84 1010.6
20260906081203 81 182 0.0 0.0 0.00 0.00 0.00 83 1010.6
20260906080704 81 182 0.0 0.0 0.00 0.00 0.00 83 1010.6
20260906080204 81 182 0.0 0.0 0.00 0.00 0.00 83 1010.6
20260906075704 81 182 0.0 0.0 0.00 0.00 0.00 83 1010.7
20260906075204 81 182 0.0 0.0 0.00 0.00 0.00 83 1010.8
20260906074703 81 182 0.0 0.0 0.00 0.00 0.00 83 1010.9
20260906073704 81 182 0.0 0.0 0.00 0.00 0.00 82 1011.1
20260906073204 81 182 0.0 0.0 0.00 0.00 0.00 82 1011.1
20260906072704 82 182 0.0 0.0 0.00 0.00 0.00 82 1011.2
20260906072204 82 182 0.0 0.0 0.00 0.00 0.00 82 1011.3
20260906071203 82 182 0.0 0.0 0.00 0.00 0.00 82 1011.4
20260906070703 82 182 0.0 0.0 0.00 0.00 0.00 81 1011.3
20260906070204 82 182 0.0 0.0 0.00 0.00 0.00 81 1011.5
20260906065704 82 182 0.0 0.0 0.00 0.00 0.00 81 1011.5
20260906065204 82 182 0.0 0.0 0.00 0.00 0.00 80 1011.5
20260906064704 82 182 0.0 0.0 0.00 0.00 0.00 80 1011.5
20260906064204 82 182 0.0 0.0 0.00 0.00 0.00 80 1011.6
20260906063704 82 182 0.0 0.0 0.00 0.00 0.00 79 1011.6
20260906063204 82 182 0.0 0.0 0.00 0.00 0.00 79 1011.6
20260906062703 83 182 0.0 0.0 0.00 0.00 0.00 79 1011.7
20260906062204 83 182 0.0 0.0 0.00 0.00 0.00 78 1011.7
20260906061704 83 120 0.0 0.0 0.00 0.00 0.00 78 1011.7
20260906061203 83 120 0.0 0.0 0.00 0.00 0.00 77 1011.7
20260906060703 83 120 0.0 0.0 0.00 0.00 0.00 77 1011.7
20260906060204 83 119 0.0 0.0 0.00 0.00 0.00 77 1011.7
20260906055704 83 119 0.0 0.0 0.00 0.00 0.00 77 1011.7
20260906055204 83 119 0.0 0.0 0.00 0.00 0.00 76 1011.7
20260906054703 83 119 0.0 0.0 0.00 0.00 0.00 76 1011.7
20260906053703 83 119 0.0 0.0 0.00 0.00 0.00 75 1011.7
20260906053203 84 119 0.0 0.0 0.00 0.00 0.00 74 1011.8
20260906052703 84 119 0.0 0.0 0.00 0.00 0.00 74 1011.8
20260906051704 84 119 0.0 0.0 0.00 0.00 0.00 73 1011.8
20260906051203 84 119 0.0 0.0 0.00 0.00 0.00 73 1011.8
20260906050703 84 119 0.0 0.0 0.00 0.00 0.00 72 1011.8
20260906050204 85 119 0.0 0.0 0.00 0.00 0.00 72 1011.7
20260906045704 85 119 0.0 0.0 0.00 0.00 0.00 72 1011.7
20260906045203 85 119 0.0 0.0 0.00 0.00 0.00 72 1011.7
20260906044703 85 119 0.0 0.0 0.00 0.00 0.00 72 1011.8
20260906044203 85 119 0.0 0.0 0.00 0.00 0.00 71 1011.7
20260906043704 85 119 0.0 0.0 0.00 0.00 0.00 71 1011.5
20260906043204 85 119 0.0 0.0 0.00 0.00 0.00 71 1011.6
20260906042704 85 119 0.0 0.0 0.00 0.00 0.00 71 1011.7
20260906042204 85 115 0.0 0.0 0.00 0.00 0.00 71 1011.7
20260906041703 85 115 0.0 0.0 0.00 0.00 0.00 71 1011.6
20260906040204 86 115 0.0 0.0 0.00 0.00 0.00 70 1011.5
20260906035704 86 115 0.0 0.0 0.00 0.00 0.00 69 1011.5
20260906035204 86 115 0.0 0.0 0.00 0.00 0.00 69 1011.4
20260906034703 86 115 0.0 0.0 0.00 0.00 0.00 69 1011.5
20260906033704 87 115 0.0 0.0 0.00 0.00 0.00 68 1011.5
20260906033203 87 115 0.0 0.0 0.00 0.00 0.00 68 1011.4
20260906032704 87 115 0.0 0.0 0.00 0.00 0.00 68 1011.5
20260906032204 87 115 0.0 0.0 0.00 0.00 0.00 68 1011.4
20260906030704 88 115 0.0 0.0 0.00 0.00 0.00 67 1011.2
20260906030204 88 116 0.0 0.0 0.00 0.00 0.00 66 1011.2
20260906025704 88 116 0.0 0.0 0.00 0.00 0.00 66 1011.1
20260906025203 88 118 0.0 0.0 0.00 0.00 0.00 65 1010.9
20260906024203 89 121 0.0 0.0 0.00 0.00 0.00 63 1010.6
20260906023703 89 106 0.0 0.0 0.00 0.00 0.00 62 1010.4
20260906022203 89 108 0.0 2.0 0.00 0.00 0.00 60 1010.2
20260906021704 90 105 0.0 1.0 0.00 0.00 0.00 59 1010.1
20260906021203 90 103 0.0 0.0 0.00 0.00 0.00 58 1010.0
20260906020204 91 106 0.0 0.0 0.00 0.00 0.00 56 1009.7
20260906015704 91 106 1.0 6.0 0.00 0.00 0.00 56 1009.6
20260906014703 91 104 0.0 0.0 0.00 0.00 0.00 54 1009.5
20260906014203 91 101 0.0 3.0 0.00 0.00 0.00 53 1009.5
20260906013704 91 95 0.0 1.0 0.00 0.00 0.00 53 1009.4
20260906013204 92 316 0.0 2.0 0.00 0.00 0.00 52 1009.4
20260906012204 92 111 0.0 0.0 0.00 0.00 0.00 51 1009.2
20260906011703 92 110 0.0 1.0 0.00 0.00 0.00 52 1009.2
20260906011204 92 110 0.0 0.0 0.00 0.00 0.00 52 1009.2
20260906010203 92 110 0.0 0.0 0.00 0.00 0.00 51 1009.1
20260906005203 93 110 0.0 0.0 0.00 0.00 0.00 50 1009.1
20260906004703 93 110 0.0 3.0 0.00 0.00 0.00 50 1009.2
20260906004203 93 107 0.0 3.0 0.00 0.00 0.00 50 1009.1
20260906003204 94 108 0.0 0.0 0.00 0.00 0.00 49 1009.1
20260906002703 94 108 0.0 0.0 0.00 0.00 0.00 49 1009.1
20260906001704 95 114 1.0 6.0 0.00 0.00 0.00 48 1009.0
20260906000703 95 119 0.0 3.0 0.00 0.00 0.00 48 1008.9
20260905235703 95 122 1.0 3.0 0.00 0.00 0.00 48 1009.0
20260905235204 95 136 1.0 3.0 0.00 0.00 0.00 48 1008.9
20260905234704 95 115 0.0 3.0 0.00 0.00 0.00 48 1008.9
20260905234203 95 119 0.0 0.0 0.00 0.00 0.00 48 1008.8
20260905233703 95 107 0.0 3.0 0.00 0.00 0.00 47 1008.9
20260905233203 96 114 0.0 0.0 0.00 0.00 0.00 46 1008.8
20260905232704 95 113 0.0 0.0 0.00 0.00 0.00 46 1008.8
20260905232203 95 114 0.0 0.0 0.00 0.00 0.00 46 1008.8
20260905231704 95 114 0.0 0.0 0.00 0.00 0.00 47 1008.8
20260905231203 95 107 0.0 0.0 0.00 0.00 0.00 47 1008.7
20260905230704 96 102 0.0 0.0 0.00 0.00 0.00 46 1008.7
20260905225703 96 110 2.0 3.0 0.00 0.00 0.00 45 1008.7
20260905225204 97 100 0.0 2.0 0.00 0.00 0.00 44 1008.7
20260905224704 98 111 0.0 3.0 0.00 0.00 0.00 43 1008.7
20260905224203 99 73 0.0 2.0 0.00 0.00 0.00 41 1008.7
20260905223703 100 70 0.0 0.0 0.00 0.00 0.00 40 1008.7
20260905223204 100 65 0.0 0.0 0.00 0.00 0.00 39 1008.6
20260905222203 100 109 0.0 0.0 0.00 0.00 0.00 38 1008.6
20260905221704 101 99 0.0 0.0 0.00 0.00 0.00 38 1008.6
20260905221203 100 73 0.0 0.0 0.00 0.00 0.00 38 1008.6
20260905220704 100 296 0.0 0.0 0.00 0.00 0.00 38 1008.6
20260905215704 100 34 0.0 0.0 0.00 0.00 0.00 38 1008.7
20260905215204 100 333 0.0 0.0 0.00 0.00 0.00 38 1008.7
20260905214704 100 95 0.0 0.0 0.00 0.00 0.00 38 1008.7